Weather History for KBAB - September, 2013

Change the Weather History Date:

Saturday, September 14, 2013

  Actual Average (KMYV) Record (KMYV)
Temperature  
Mean Temperature 74 °F -  
Max Temperature 89 °F 88 °F - (-1)
Min Temperature 60 °F 57 °F - (-1)
Cooling Degree Days 10    
Growing Degree Days 24 (Base 50)    
Moisture  
Dew Point 56 °F    
Average Humidity 56    
Maximum Humidity 77    
Minimum Humidity 36    
Precipitation  
Precipitation 0.00 in - - ()
Sea Level Pressure  
Sea Level Pressure 29.70 in    
Wind  
Wind Speed 5 mph (South)    
Max Wind Speed 9 mph    
Max Gust Speed -    
Visibility 10 miles    
Events      
Averages and records for this station are not official NWS values.
T = Trace of Precipitation, MM = Missing Value Source: NWS Daily Summary

Daily Weather History Graph

Daily Weather History Graph

Search for Another Location

Airport or City:

Trip Planner

Search our weather history database for the weather conditions in past years. The results will help you decide how hot, cold, wet, or windy it might be!

Date:

Astronomy

Sep. 14, 2013 Rise Set
Actual Time 6:46 AM PDT 7:15 PM PDT
Civil Twilight 6:19 AM PDT 7:41 PM PDT
Nautical Twilight 5:47 AM PDT 8:13 PM PDT
Astronomical Twilight 5:15 AM PDT 8:45 PM PDT
Moon 3:59 PM PDT (9/14) 1:25 AM PDT (9/14)
Length of Visible Light 13h 22m
Length of Day
12h 28m
Waxing Gibbous, 73% of the Moon is Illuminated
Sep 14
Waxing Gibbous
Sep 19
Full
Sep 26
Last Quarter
Oct 4
New
Oct 11
First Quarter

Hourly Weather History & Observations

Time (PDT) Temp. Heat Index Dew Point Humidity Pressure Visibility Wind Dir Wind Speed Gust Speed Precip Events Conditions
12:56 AM 68.0 °F - 55.4 °F 64% 29.70 in 10.0 mi South 5.8 mph - N/A   Clear
1:56 AM 64.4 °F - 53.6 °F 68% 29.70 in 10.0 mi South 6.9 mph - N/A   Clear
2:56 AM 66.2 °F - 53.6 °F 64% 29.71 in 10.0 mi South 3.5 mph - N/A   Clear
3:56 AM 64.4 °F - 53.6 °F 68% 29.71 in 10.0 mi South 4.6 mph - N/A   Clear
4:56 AM 62.6 °F - 53.6 °F 72% 29.72 in 10.0 mi SSW 4.6 mph - N/A   Clear
5:56 AM 62.6 °F - 53.6 °F 72% 29.73 in 10.0 mi Calm Calm - N/A   Clear
6:56 AM 60.8 °F - 53.6 °F 77% 29.75 in 10.0 mi ESE 1.2 mph - N/A   Clear
7:56 AM 64.4 °F - 53.6 °F 68% 29.76 in 10.0 mi SSE 3.5 mph - N/A   Clear
8:56 AM 69.8 °F - 53.6 °F 56% 29.76 in 10.0 mi South 8.1 mph - N/A   Clear
9:56 AM 73.4 °F - 55.4 °F 53% 29.76 in 10.0 mi SSW 5.8 mph - N/A   Clear
10:56 AM 78.8 °F - 55.4 °F 44% 29.76 in 10.0 mi SSW 6.9 mph - N/A   Clear
11:56 AM 80.6 °F 80.8 °F 57.2 °F 45% 29.75 in 10.0 mi Variable 5.8 mph - N/A   Clear
12:56 PM 82.4 °F 82.0 °F 57.2 °F 42% 29.73 in 10.0 mi Variable 1.2 mph - N/A   Clear
1:56 PM 86.0 °F 84.9 °F 57.2 °F 37% 29.71 in 10.0 mi Variable 5.8 mph - N/A   Clear
2:56 PM 87.8 °F 87.1 °F 59.0 °F 38% 29.69 in 10.0 mi SSE 4.6 mph - N/A   Clear
3:56 PM 87.8 °F 87.1 °F 59.0 °F 38% 29.67 in 10.0 mi South 6.9 mph - N/A   Clear
4:56 PM 89.6 °F 88.9 °F 59.0 °F 36% 29.65 in 10.0 mi South 9.2 mph - N/A   Clear
5:56 PM 87.8 °F 87.1 °F 59.0 °F 38% 29.64 in 10.0 mi South 9.2 mph - N/A   Clear
6:56 PM 82.4 °F 82.9 °F 60.8 °F 48% 29.64 in 10.0 mi SSW 6.9 mph - N/A   Clear
7:56 PM 73.4 °F - 59.0 °F 61% 29.65 in 10.0 mi South 5.8 mph - N/A   Clear
8:56 PM 69.8 °F - 57.2 °F 64% 29.67 in 10.0 mi South 5.8 mph - N/A   Clear
9:56 PM 69.8 °F - 57.2 °F 64% 29.68 in 10.0 mi South 5.8 mph - N/A   Clear
10:56 PM 66.2 °F - 55.4 °F 68% 29.68 in 10.0 mi SSE 6.9 mph - N/A   Clear
11:56 PM 68.0 °F - 53.6 °F 60% 29.69 in 10.0 mi South 9.2 mph - N/A   Clear